EW9528 Weather Reports


Display with metric or nautical units.
time (UTC)temp
F
wind
direction
speed
MPH
gust
MPH
rain 1hr
in
rain 24hr
in
rain mn
in
humidity
%
barometer
mb
20260507231442 75 37 7.0 9.0 0.00 0.00 0.00 20 1017.1
20260507230443 75 22 2.0 4.0 0.00 0.00 0.00 20 1017.1
20260507225529 75 315 0.0 1.0 0.00 0.00 0.00 20 1017.1
20260507224626 75 153 0.0 1.0 0.00 0.00 0.00 21 1017.3
20260507223628 75 165 7.0 10.0 0.00 0.00 0.00 20 1017.5
20260507221741 74 202 4.0 4.0 0.00 0.00 0.00 22 1017.7
20260507220725 73 186 4.0 6.0 0.00 0.00 0.00 21 1017.8
20260507215825 73 203 3.0 4.0 0.00 0.00 0.00 21 1018.1
20260507214827 74 185 3.0 4.0 0.00 0.00 0.00 20 1018.1
20260507213825 74 179 4.0 5.0 0.00 0.00 0.00 21 1018.2
20260507212825 73 128 3.0 5.0 0.00 0.00 0.00 21 1018.4
20260507211827 73 161 3.0 6.0 0.00 0.00 0.00 21 1018.6
20260507210826 72 157 3.0 5.0 0.00 0.00 0.00 21 1018.8
20260507205827 72 158 6.0 10.0 0.00 0.00 0.00 22 1018.9
20260507204825 72 154 4.0 7.0 0.00 0.00 0.00 22 1019.0
20260507203842 71 165 5.0 9.0 0.00 0.00 0.00 23 1019.2
20260507202926 70 183 4.0 8.0 0.00 0.00 0.00 23 1019.2
20260507202826 70 160 4.0 7.0 0.00 0.00 0.00 23 1019.3
20260507201826 70 170 5.0 7.0 0.00 0.00 0.00 23 1019.5
20260507200826 70 157 5.0 8.0 0.00 0.00 0.00 23 1019.6
20260507195827 70 138 4.0 6.0 0.00 0.00 0.00 22 1019.5
20260507194825 69 182 5.0 7.0 0.00 0.00 0.00 23 1019.7
20260507192827 68 166 6.0 8.0 0.00 0.00 0.00 23 1020.1
20260507190943 66 161 3.0 6.0 0.00 0.00 0.00 24 1020.5
20260507185927 66 161 5.0 7.0 0.00 0.00 0.00 24 1020.6
20260507185025 66 157 3.0 4.0 0.00 0.00 0.00 24 1020.8
20260507184926 66 158 5.0 7.0 0.00 0.00 0.00 24 1020.7
20260507182942 66 143 4.0 5.0 0.00 0.00 0.00 25 1020.8
20260507182025 65 178 4.0 5.0 0.00 0.00 0.00 25 1021.0
20260507181926 65 149 3.0 7.0 0.00 0.00 0.00 25 1020.9
20260507175026 63 128 3.0 5.0 0.00 0.00 0.00 27 1021.4
20260507174044 62 130 4.0 7.0 0.00 0.00 0.00 28 1021.6
20260507173126 61 171 5.0 6.0 0.00 0.00 0.00 31 1021.8
20260507172126 60 127 2.0 4.0 0.00 0.00 0.00 34 1022.0
20260507171225 59 157 3.0 6.0 0.00 0.00 0.00 37 1022.0
20260507170226 59 165 5.0 7.0 0.00 0.00 0.00 38 1022.0
20260507165324 57 175 3.0 5.0 0.00 0.00 0.00 40 1022.1
20260507164326 57 180 3.0 5.0 0.00 0.00 0.00 39 1022.4
20260507163326 57 164 4.0 6.0 0.00 0.00 0.00 41 1022.5
20260507155425 55 157 2.0 3.0 0.00 0.00 0.00 47 1022.7
20260507154428 55 163 3.0 7.0 0.00 0.00 0.00 47 1022.8
20260507153428 54 132 2.0 5.0 0.00 0.00 0.00 48 1022.9
20260507152440 54 158 3.0 6.0 0.00 0.00 0.00 49 1022.9
20260507150527 53 186 2.0 5.0 0.00 0.00 0.00 52 1023.0
20260507145625 51 180 0.0 2.0 0.00 0.00 0.00 54 1023.0
20260507144626 51 180 2.0 3.0 0.00 0.00 0.00 56 1022.9
20260507143628 50 112 0.0 2.0 0.00 0.00 0.00 55 1023.0
20260507142726 50 112 0.0 1.0 0.00 0.00 0.00 55 1023.0
20260507141726 50 45 0.0 0.0 0.00 0.00 0.00 55 1022.9
20260507140726 49 45 0.0 0.0 0.00 0.00 0.00 59 1022.9
20260507135826 47 45 3.0 3.0 0.00 0.00 0.00 65 1022.8
20260507134826 46 45 0.0 0.0 0.00 0.00 0.00 68 1022.6
20260507134725 46 45 0.0 0.0 0.00 0.00 0.00 68 1022.6
20260507133726 45 47 3.0 6.0 0.00 0.00 0.00 68 1022.6
20260507132726 44 247 1.0 2.0 0.00 0.00 0.00 70 1022.4
20260507131726 43 247 1.0 1.0 0.00 0.00 0.00 71 1022.4
20260507125742 42 247 0.0 0.0 0.00 0.00 0.00 72 1022.2
20260507125628 42 247 0.0 1.0 0.00 0.00 0.00 72 1022.1
20260507124625 42 247 0.0 0.0 0.00 0.00 0.00 72 1022.1
20260507123626 41 247 2.0 3.0 0.00 0.00 0.00 73 1022.0
20260507122627 41 247 2.0 2.0 0.00 0.00 0.00 72 1021.9
20260507121725 42 247 0.0 0.0 0.00 0.00 0.00 70 1021.8
20260507120824 42 247 0.0 0.0 0.00 0.00 0.00 70 1021.9
20260507115827 43 247 0.0 0.0 0.00 0.00 0.00 70 1021.8
20260507114825 43 247 0.0 0.0 0.00 0.00 0.00 71 1021.9
20260507112825 41 247 0.0 0.0 0.00 0.00 0.00 72 1021.8
20260507111825 41 247 0.0 0.0 0.00 0.00 0.00 71 1021.8
20260507111742 41 247 0.0 0.0 0.00 0.00 0.00 71 1021.7
20260507104824 42 247 0.0 0.0 0.00 0.00 0.00 69 1021.8
20260507103826 42 247 0.0 0.0 0.00 0.00 0.00 69 1021.9
20260507102925 42 247 0.0 0.0 0.00 0.00 0.00 68 1022.0
20260507101926 43 247 0.0 0.0 0.00 0.00 0.00 67 1022.0
20260507101024 43 247 0.0 0.0 0.00 0.00 0.00 67 1022.2
20260507100033 44 247 0.0 0.0 0.00 0.00 0.00 65 1022.3
20260507095927 44 247 0.0 0.0 0.00 0.00 0.00 64 1022.2
20260507094927 44 247 0.0 0.0 0.00 0.00 0.00 63 1022.5
20260507093926 45 247 0.0 0.0 0.00 0.00 0.00 62 1022.5
20260507092927 45 247 0.0 0.0 0.00 0.01 0.00 60 1022.7
20260507091945 44 247 0.0 0.0 0.00 0.03 0.00 58 1022.7
20260507091026 44 247 0.0 0.0 0.00 0.04 0.00 58 1022.7
20260507090025 43 247 0.0 0.0 0.00 0.06 0.00 55 1022.6
20260507085041 43 247 0.0 0.0 0.00 0.08 0.00 56 1022.8
20260507084026 42 247 0.0 2.0 0.00 0.08 0.00 56 1022.8
20260507082026 42 247 0.0 0.0 0.00 0.08 0.00 54 1023.0
20260507081026 42 247 0.0 0.0 0.00 0.08 0.00 52 1023.0
20260507080042 43 247 0.0 0.0 0.00 0.08 0.00 51 1023.2
20260507075125 43 247 0.0 0.0 0.00 0.08 0.00 50 1023.1
20260507074126 44 247 0.0 0.0 0.00 0.08 0.00 49 1023.1
20260507074026 44 247 0.0 0.0 0.00 0.08 0.00 49 1023.2
20260507072026 45 247 0.0 0.0 0.00 0.08 0.00 47 1023.3
20260507071124 45 247 0.0 0.0 0.00 0.08 0.00 47 1023.2
20260507070125 45 270 0.0 0.0 0.00 0.08 0.00 47 1023.4
20260507065127 45 270 0.0 0.0 0.00 0.08 0.00 48 1023.4
20260507064142 45 270 0.0 0.0 0.00 0.08 0.00 49 1023.3
20260507063225 45 270 1.0 2.0 0.00 0.08 0.00 48 1023.4
20260507063126 45 270 0.0 2.0 0.00 0.08 0.00 49 1023.4
20260507062125 45 270 2.0 3.0 0.00 0.08 0.00 48 1023.4
20260507061225 45 270 0.0 1.0 0.00 0.08 0.00 46 1023.2
20260507060242 46 270 0.0 0.0 0.00 0.08 0.00 45 1023.2
20260507055211 47 270 0.0 0.0 0.00 0.08 0.08 42 1023.1
20260507054213 48 270 0.0 0.0 0.00 0.08 0.08 41 1023.2
20260507053213 48 270 0.0 0.0 0.00 0.08 0.08 39 1023.2
20260507052212 49 262 1.0 2.0 0.00 0.08 0.08 38 1023.0
20260507051312 49 317 2.0 6.0 0.00 0.08 0.08 38 1023.2
20260507051214 49 315 3.0 6.0 0.00 0.08 0.08 37 1023.2
20260507050211 50 315 0.0 0.0 0.00 0.08 0.08 37 1023.2
20260507050126 50 315 0.0 0.0 0.00 0.08 0.08 37 1023.2
20260507044213 50 265 3.0 4.0 0.00 0.08 0.08 37 1023.2
20260507043213 50 270 2.0 2.0 0.00 0.08 0.08 38 1023.0
20260507040510 52 112 0.0 0.0 0.00 0.08 0.08 33 1023.0
20260507035513 53 253 2.0 4.0 0.00 0.08 0.08 33 1023.0
20260507034511 52 286 2.0 3.0 0.00 0.08 0.08 33 1023.0
20260507033528 52 247 0.0 2.0 0.00 0.08 0.08 34 1022.9
20260507032611 54 247 2.0 4.0 0.00 0.08 0.08 32 1022.6
20260507031611 55 292 1.0 3.0 0.00 0.08 0.08 27 1022.5
20260507030628 55 315 0.0 0.0 0.00 0.08 0.08 28 1022.5
20260507025712 55 337 0.0 0.0 0.00 0.08 0.08 27 1022.6
20260507023910 56 360 1.0 2.0 0.00 0.08 0.08 28 1022.5
20260507022010 57 360 2.0 3.0 0.00 0.08 0.08 26 1022.4
20260507021012 59 360 2.0 2.0 0.00 0.08 0.08 25 1022.5
20260507020011 60 360 2.0 3.0 0.00 0.08 0.08 24 1022.4
20260507015010 61 22 1.0 2.0 0.00 0.08 0.08 23 1022.4
20260507014013 61 32 2.0 4.0 0.00 0.08 0.08 23 1022.4
20260507013011 62 20 5.0 7.0 0.00 0.08 0.08 22 1022.5
20260507012012 62 26 6.0 10.0 0.00 0.08 0.08 22 1022.4
20260507011014 62 3 4.0 8.0 0.00 0.08 0.08 21 1022.5
20260507005013 62 22 7.0 10.0 0.00 0.08 0.08 21 1022.3
20260507004012 63 36 7.0 11.0 0.00 0.08 0.08 21 1022.3
20260507003111 62 357 3.0 6.0 0.00 0.08 0.08 22 1022.4
20260507002112 63 41 5.0 9.0 0.00 0.08 0.08 21 1022.3
20260507000126 62 21 9.0 12.0 0.00 0.08 0.08 21 1022.2
20260506235111 62 47 9.0 14.0 0.00 0.08 0.08 22 1022.2
20260506234112 63 18 8.0 12.0 0.00 0.08 0.08 21 1022.1
20260506233113 63 357 6.0 10.0 0.00 0.08 0.08 22 1022.1